CHEOPS (44874 NORAD) Tracking and Keplerian Element Data

This shows tracking and keplerian element data for the satellite.

Feedback or suggestion? Click here.




ElementValue
Catalog44874
NameCHEOPS
Epoch Orbit1551
Epoch Day93.97065987
Epoch Year2020
RAAN279.3882
Inclination98.2329
Eccentricity0.0009929
Argument of Perigee316.6324
Mean Anonmoly43.4092
Mean Motion14.56785745
Decay Rate2.8E-07
L11 44874U 19092B 20093.97065987 .00000028 00000-0 16616-4 0 9997
L22 44874 98.2329 279.3882 0009929 316.6324 43.4092 14.56785745 15511

Live tracking and technical data element details for CHEOPS (NORAD 44874). CHEOPS can be tracked NOW for your location showing map with azimuth and elevation plus other details from your city location.

Track the satellite on the map from your city or location and see movement details for azimuth, elevation, latitude, longitude, range, height, and movement on the map or in text.







IsCatalogInMostPopularTable: catalog: 44874, numindb: 29
Update: records affected: 1



GetName: 44874 CHEOPS

Hit Count: updated at: Fri, 10 Apr 2020 17:49:14 GMT